• In Deutschland
  • Länderverzeichnis
  • Für 7 Tage
  • Wassertemperatur
  • Satellitenkarten
  • Wetterkarte
  • Widgets
  • user-avatar
    Anmelden

    Stündliche Wetter Nachiczewan

    Heute, 17 Januar, Mittwoch

    Zeit Temperatur Niederschläge Wind Luftdruck Luftfeuchtigkeit
    00:00 +1°C° 0 mm 1 m/S 688 mmHg 73%
    01:00 +1°C° 0 mm 1 m/S 688 mmHg 73%
    02:00 +1°C° 0 mm 1 m/S 687 mmHg 73%
    03:00 0°C° 0 mm 1 m/S 687 mmHg 73%
    04:00 0°C° 0 mm 1 m/S 687 mmHg 73%
    05:00 0°C° 0 mm 1 m/S 687 mmHg 73%
    06:00 0°C° 0 mm 1 m/S 687 mmHg 73%
    07:00 0°C° 0 mm 1 m/S 687 mmHg 69%
    08:00 +1°C° 0 mm 1 m/S 687 mmHg 65%
    09:00 +2°C° 0 mm 1 m/S 687 mmHg 62%
    10:00 +3°C° 0 mm 1 m/S 686 mmHg 59%
    11:00 +3°C° 0 mm 1 m/S 686 mmHg 55%
    12:00 +4°C° 0 mm 1 m/S 685 mmHg 52%
    13:00 +5°C° 0 mm 1 m/S 685 mmHg 51%
    14:00 +5°C° 0 mm 1 m/S 684 mmHg 50%
    15:00 +5°C° 0 mm 1 m/S 684 mmHg 48%
    16:00 +5°C° 0 mm 1 m/S 684 mmHg 51%
    17:00 +4°C° 0 mm 1 m/S 684 mmHg 54%
    18:00 +3°C° 0 mm 1 m/S 684 mmHg 56%
    19:00 +3°C° 0 mm 1 m/S 684 mmHg 56%
    20:00 +3°C° 0 mm 1 m/S 684 mmHg 56%
    21:00 +2°C° 0 mm 1 m/S 684 mmHg 56%
    22:00 +2°C° 0 mm 1 m/S 684 mmHg 56%
    23:00 +2°C° 0 mm 1 m/S 684 mmHg 57%

    Morgen, 18 Januar, Donnerstag

    Zeit Temperatur Niederschläge Wind Luftdruck Luftfeuchtigkeit
    00:00 +2°C° 0 mm 1 m/S 684 mmHg 57%
    01:00 +2°C° 0 mm 1 m/S 683 mmHg 59%
    02:00 +2°C° 0 mm 1 m/S 683 mmHg 61%
    03:00 +2°C° 0 mm 1 m/S 683 mmHg 64%
    04:00 +2°C° 0,2 mm 1 m/S 682 mmHg 66%
    05:00 +2°C° 0,2 mm 1 m/S 682 mmHg 69%
    06:00 +2°C° 0,2 mm 1 m/S 682 mmHg 72%
    07:00 +2°C° 0,1 mm 2 m/S 682 mmHg 70%
    08:00 +2°C° 0,1 mm 2 m/S 682 mmHg 68%
    09:00 +3°C° 0,1 mm 2 m/S 682 mmHg 65%
    10:00 +4°C° 0,1 mm 2 m/S 682 mmHg 62%
    11:00 +4°C° 0,1 mm 3 m/S 681 mmHg 58%
    12:00 +5°C° 0,1 mm 3 m/S 681 mmHg 55%
    13:00 +7°C° 0 mm 3 m/S 681 mmHg 53%
    14:00 +6°C° 0 mm 4 m/S 680 mmHg 52%
    15:00 +7°C° 0 mm 4 m/S 680 mmHg 50%
    16:00 +7°C° 0 mm 3 m/S 680 mmHg 54%
    17:00 +5°C° 0 mm 3 m/S 679 mmHg 57%
    18:00 +4°C° 0 mm 3 m/S 679 mmHg 60%
    19:00 +4°C° 0 mm 3 m/S 679 mmHg 62%
    20:00 +3°C° 0 mm 3 m/S 679 mmHg 63%
    21:00 +3°C° 0 mm 3 m/S 679 mmHg 64%
    22:00 +3°C° 0 mm 3 m/S 679 mmHg 66%
    23:00 +3°C° 0 mm 3 m/S 679 mmHg 68%

    übermorgen, 19 Januar, Freitag

    Zeit Temperatur Niederschläge Wind Luftdruck Luftfeuchtigkeit
    00:00 +3°C° 0 mm 3 m/S 679 mmHg 69%
    01:00 +2°C° 0 mm 3 m/S 679 mmHg 71%
    02:00 +2°C° 0 mm 3 m/S 678 mmHg 73%
    03:00 +2°C° 0 mm 3 m/S 678 mmHg 75%
    04:00 +2°C° 0 mm 3 m/S 678 mmHg 75%
    05:00 +2°C° 0 mm 3 m/S 677 mmHg 75%
    06:00 +3°C° 0 mm 2 m/S 677 mmHg 74%
    07:00 +4°C° 0 mm 2 m/S 678 mmHg 72%
    08:00 +5°C° 0 mm 2 m/S 678 mmHg 69%
    09:00 +5°C° 0 mm 2 m/S 678 mmHg 67%
    10:00 +7°C° 0 mm 3 m/S 678 mmHg 63%
    11:00 +8°C° 0 mm 3 m/S 678 mmHg 59%
    12:00 +8°C° 0 mm 4 m/S 677 mmHg 55%
    13:00 +10°C° 0 mm 4 m/S 677 mmHg 52%
    14:00 +10°C° 0 mm 4 m/S 677 mmHg 49%
    15:00 +11°C° 0 mm 4 m/S 678 mmHg 47%
    16:00 +10°C° 0 mm 3 m/S 678 mmHg 48%
    17:00 +8°C° 0 mm 3 m/S 678 mmHg 50%
    18:00 +7°C° 0 mm 2 m/S 679 mmHg 52%
    19:00 +7°C° 0 mm 2 m/S 679 mmHg 54%
    20:00 +7°C° 0 mm 2 m/S 680 mmHg 56%
    21:00 +6°C° 0 mm 2 m/S 680 mmHg 58%
    22:00 +6°C° 0 mm 2 m/S 681 mmHg 61%
    23:00 +5°C° 0 mm 2 m/S 681 mmHg 64%

    20 Januar, Samstag

    Zeit Temperatur Niederschläge Wind Luftdruck Luftfeuchtigkeit
    00:00 +5°C° 0 mm 2 m/S 681 mmHg 67%
    01:00 +5°C° 0,2 mm 2 m/S 682 mmHg 69%
    02:00 +4°C° 0,2 mm 2 m/S 683 mmHg 72%
    03:00 +5°C° 0,2 mm 1 m/S 683 mmHg 74%
    04:00 +5°C° 0,2 mm 1 m/S 684 mmHg 75%
    05:00 +5°C° 0,2 mm 1 m/S 684 mmHg 75%
    06:00 +5°C° 0,2 mm 1 m/S 685 mmHg 75%
    07:00 +5°C° 0,1 mm 1 m/S 686 mmHg 73%
    08:00 +5°C° 0,1 mm 1 m/S 687 mmHg 71%
    09:00 +5°C° 0,1 mm 1 m/S 688 mmHg 69%
    10:00 +6°C° 0 mm 1 m/S 688 mmHg 66%
    11:00 +7°C° 0 mm 1 m/S 688 mmHg 63%
    12:00 +7°C° 0 mm 1 m/S 688 mmHg 60%
    13:00 +8°C° 0 mm 1 m/S 688 mmHg 59%
    14:00 +8°C° 0 mm 1 m/S 688 mmHg 58%
    15:00 +8°C° 0 mm 1 m/S 688 mmHg 57%
    16:00 +7°C° 0 mm 1 m/S 688 mmHg 60%
    17:00 +5°C° 0 mm 0 m/S 689 mmHg 64%
    18:00 +4°C° 0 mm 0 m/S 689 mmHg 68%
    19:00 +4°C° 0 mm 0 m/S 690 mmHg 69%
    20:00 +5°C° 0 mm 1 m/S 690 mmHg 70%
    21:00 +4°C° 0 mm 1 m/S 690 mmHg 70%
    22:00 +4°C° 0 mm 1 m/S 690 mmHg 71%
    23:00 +4°C° 0 mm 1 m/S 690 mmHg 71%

    21 Januar, Sonntag

    Zeit Temperatur Niederschläge Wind Luftdruck Luftfeuchtigkeit
    00:00 +3°C° 0 mm 1 m/S 690 mmHg 71%
    01:00 +3°C° 0 mm 1 m/S 690 mmHg 71%
    02:00 +3°C° 0 mm 1 m/S 690 mmHg 71%
    03:00 +3°C° 0 mm 1 m/S 690 mmHg 71%
    04:00 +3°C° 0 mm 1 m/S 690 mmHg 70%
    05:00 +3°C° 0 mm 1 m/S 690 mmHg 70%
    06:00 +3°C° 0 mm 1 m/S 690 mmHg 69%
    07:00 +4°C° 0 mm 1 m/S 690 mmHg 64%
    08:00 +5°C° 0 mm 1 m/S 691 mmHg 60%
    09:00 +6°C° 0 mm 1 m/S 691 mmHg 55%
    10:00 +7°C° 0 mm 1 m/S 690 mmHg 53%
    11:00 +8°C° 0 mm 1 m/S 690 mmHg 51%
    12:00 +9°C° 0 mm 1 m/S 689 mmHg 50%
    13:00 +9°C° 0 mm 1 m/S 689 mmHg 48%
    14:00 +10°C° 0 mm 1 m/S 689 mmHg 47%
    15:00 +10°C° 0 mm 1 m/S 688 mmHg 46%
    16:00 +9°C° 0 mm 1 m/S 688 mmHg 49%
    17:00 +8°C° 0 mm 1 m/S 688 mmHg 52%
    18:00 +6°C° 0 mm 1 m/S 688 mmHg 55%
    19:00 +6°C° 0 mm 1 m/S 688 mmHg 54%
    20:00 +6°C° 0 mm 1 m/S 688 mmHg 53%
    21:00 +5°C° 0 mm 1 m/S 688 mmHg 52%
    22:00 +5°C° 0 mm 1 m/S 687 mmHg 51%
    23:00 +5°C° 0 mm 1 m/S 687 mmHg 50%

    22 Januar, Montag

    Zeit Temperatur Niederschläge Wind Luftdruck Luftfeuchtigkeit
    00:00 +5°C° 0 mm 1 m/S 687 mmHg 49%
    01:00 +5°C° 0 mm 1 m/S 686 mmHg 49%
    02:00 +5°C° 0 mm 1 m/S 686 mmHg 48%
    03:00 +5°C° 0 mm 1 m/S 686 mmHg 48%
    04:00 +5°C° 0 mm 1 m/S 685 mmHg 48%
    05:00 +4°C° 0 mm 2 m/S 685 mmHg 47%
    06:00 +4°C° 0 mm 2 m/S 685 mmHg 47%
    07:00 +5°C° 0 mm 2 m/S 685 mmHg 45%
    08:00 +6°C° 0 mm 2 m/S 685 mmHg 44%
    09:00 +7°C° 0 mm 2 m/S 685 mmHg 42%
    10:00 +8°C° 0 mm 2 m/S 684 mmHg 40%
    11:00 +9°C° 0 mm 2 m/S 684 mmHg 38%
    12:00 +10°C° 0 mm 2 m/S 683 mmHg 36%
    13:00 +12°C° 0 mm 2 m/S 683 mmHg 34%
    14:00 +12°C° 0 mm 2 m/S 683 mmHg 32%
    15:00 +12°C° 0 mm 2 m/S 683 mmHg 31%
    16:00 +10°C° 0 mm 2 m/S 683 mmHg 33%
    17:00 +8°C° 0 mm 2 m/S 683 mmHg 35%
    18:00 +7°C° 0 mm 2 m/S 683 mmHg 37%
    19:00 +6°C° 0 mm 2 m/S 683 mmHg 37%
    20:00 +6°C° 0 mm 2 m/S 683 mmHg 37%
    21:00 +5°C° 0 mm 2 m/S 683 mmHg 37%
    22:00 +5°C° 0 mm 2 m/S 683 mmHg 37%
    23:00 +4°C° 0 mm 2 m/S 683 mmHg 37%
    Mehr zeigen